Weather History for Fort Payne, AL

Change the Weather History Date:

Tuesday, September 10, 2013

  Actual Average (KRMG) Record (KRMG)
Temperature  
Mean Temperature 78 °F 74 °F  
Max Temperature 87 °F 86 °F 102 °F (2002)
Min Temperature 68 °F 62 °F 7 °F (1996)
Degree Days  
Heating Degree Days 0 0  
Month to date heating degree days 0  
Since 1 July heating degree days 0  
Cooling Degree Days 12 9  
Month to date cooling degree days 102  
Year to date cooling degree days 1468  
Growing Degree Days 28 (Base 50)    
Moisture  
Dew Point 66 °F    
Average Humidity 72    
Maximum Humidity 94    
Minimum Humidity 43    
Precipitation  
Precipitation 0.00 in 0.11 in 0.00 in (2014)
Month to date precipitation 0.94  
Year to date precipitation 36.36  
Sea Level Pressure  
Sea Level Pressure 30.18 in    
Wind  
Wind Speed 1 mph (SE)    
Max Wind Speed 8 mph    
Max Gust Speed -    
Visibility 8 miles    
Events      
T = Trace of Precipitation, MM = Missing Value Source: NWS Daily Summary

Daily Weather History Graph

Daily Weather History Graph

Search for Another Location

Airport:

Trip Planner

Search our weather history database for the weather conditions in past years. The results will help you decide how hot, cold, wet, or windy it might be!

Date:

Astronomy

Sep. 10, 2013 Rise Set
Actual Time 6:22 AM CDT 6:56 PM CDT
Civil Twilight 5:57 AM CDT 7:21 PM CDT
Nautical Twilight 5:27 AM CDT 7:51 PM CDT
Astronomical Twilight 4:57 AM CDT 8:21 PM CDT
Moon 11:32 AM CDT (9/10) 10:14 PM CDT (9/10)
Length of Visible Light 13h 24m
Length of Day
12h 33m
Waxing Crescent, 28% of the Moon is Illuminated
Sep 10
Waxing Crescent
Sep 12
First Quarter
Sep 19
Full
Sep 26
Last Quarter
Oct 4
New

Hourly Weather History & Observations

Time (CDT) Temp. Heat Index Dew Point Humidity Pressure Visibility Wind Dir Wind Speed Gust Speed Precip Events Conditions
12:15 AM 69.8 °F - 68.0 °F 94% 30.13 in 2.0 mi Calm Calm - N/A   Clear
12:35 AM 69.8 °F - 68.0 °F 94% 30.13 in 3.0 mi Calm Calm - N/A   Clear
12:55 AM 69.8 °F - 66.2 °F 88% 30.13 in 2.5 mi Calm Calm - N/A   Clear
1:15 AM 68.0 °F - 66.2 °F 94% 30.14 in 4.0 mi Calm Calm - N/A   Clear
1:35 AM 69.8 °F - 68.0 °F 94% 30.14 in 4.0 mi Calm Calm - N/A   Clear
1:55 AM 69.8 °F - 66.2 °F 88% 30.14 in 3.0 mi Calm Calm - N/A   Clear
2:15 AM 68.0 °F - 66.2 °F 94% 30.13 in 3.0 mi Calm Calm - N/A   Clear
2:35 AM 68.0 °F - 66.2 °F 94% 30.14 in 4.0 mi Calm Calm - N/A   Clear
2:55 AM 68.0 °F - 64.4 °F 88% 30.13 in 4.0 mi Calm Calm - N/A   Clear
3:15 AM 68.0 °F - 64.4 °F 88% 30.13 in 3.0 mi Calm Calm - N/A   Clear
3:35 AM 68.0 °F - 64.4 °F 88% 30.14 in 4.0 mi Calm Calm - N/A   Clear
3:55 AM 68.0 °F - 64.4 °F 88% 30.14 in 5.0 mi Calm Calm - N/A   Clear
4:15 AM 68.0 °F - 64.4 °F 88% 30.15 in 5.0 mi Calm Calm - N/A   Clear
4:35 AM 68.0 °F - 64.4 °F 88% 30.15 in 5.0 mi Calm Calm - N/A   Clear
4:55 AM 68.0 °F - 64.4 °F 88% 30.16 in 5.0 mi Calm Calm - N/A   Clear
5:15 AM 68.0 °F - 64.4 °F 88% 30.16 in 5.0 mi Calm Calm - N/A   Clear
5:35 AM 68.0 °F - 64.4 °F 88% 30.16 in 7.0 mi Calm Calm - N/A   Clear
5:55 AM 68.0 °F - 64.4 °F 88% 30.17 in 5.0 mi Calm Calm - N/A   Clear
6:15 AM 69.8 °F - 64.4 °F 83% 30.17 in 10.0 mi ESE 5.8 mph - N/A   Clear
6:35 AM 71.6 °F - 64.4 °F 78% 30.18 in 10.0 mi SE 3.5 mph - N/A   Clear
6:55 AM 73.4 °F - 64.4 °F 73% 30.18 in 10.0 mi Calm Calm - N/A   Clear
7:15 AM 71.6 °F - 64.4 °F 78% 30.19 in 7.0 mi Calm Calm - N/A   Clear
7:35 AM 71.6 °F - 66.2 °F 83% 30.19 in 7.0 mi Calm Calm - N/A   Clear
7:55 AM 73.4 °F - 68.0 °F 83% 30.20 in 7.0 mi Calm Calm - N/A   Clear
8:15 AM 75.2 °F - 68.0 °F 78% 30.20 in 10.0 mi Calm Calm - N/A   Clear
8:35 AM 77.0 °F - 68.0 °F 74% 30.21 in 7.0 mi Calm Calm - N/A   Clear
8:55 AM 78.8 °F - 68.0 °F 69% 30.21 in 7.0 mi Calm Calm - N/A   Clear
9:15 AM 78.8 °F - 68.0 °F 69% 30.22 in 7.0 mi Calm Calm - N/A   Clear
9:35 AM 80.6 °F 83.2 °F 68.0 °F 65% 30.22 in 10.0 mi East 3.5 mph - N/A   Clear
9:55 AM 80.6 °F 83.2 °F 68.0 °F 65% 30.22 in 10.0 mi ESE 4.6 mph - N/A   Clear
10:15 AM 82.4 °F 85.4 °F 68.0 °F 62% 30.22 in 10.0 mi ESE 5.8 mph - N/A   Clear
10:35 AM 82.4 °F 84.6 °F 66.2 °F 58% 30.22 in 10.0 mi SSW 4.6 mph - N/A   Scattered Clouds
10:55 AM 82.4 °F 85.4 °F 68.0 °F 62% 30.22 in 10.0 mi SSW 5.8 mph - N/A   Scattered Clouds
11:15 AM 84.2 °F 86.6 °F 66.2 °F 55% 30.22 in 10.0 mi SE 4.6 mph - N/A   Scattered Clouds
11:35 AM 84.2 °F 86.6 °F 66.2 °F 55% 30.22 in 10.0 mi SSE 5.8 mph - N/A   Scattered Clouds
11:55 AM 86.0 °F 88.2 °F 66.2 °F 51% 30.21 in 10.0 mi South 3.5 mph - N/A   Scattered Clouds
12:15 PM 84.2 °F 85.6 °F 64.4 °F 51% 30.21 in 10.0 mi SSE 3.5 mph - N/A   Scattered Clouds
12:35 PM 86.0 °F 87.3 °F 64.4 °F 48% 30.21 in 10.0 mi South 8.1 mph - N/A   Scattered Clouds
12:55 PM 86.0 °F 87.3 °F 64.4 °F 48% 30.21 in 10.0 mi SSE 5.8 mph - N/A   Scattered Clouds
1:15 PM 86.0 °F 87.3 °F 64.4 °F 48% 30.20 in 10.0 mi Calm Calm - N/A   Scattered Clouds
1:35 PM 86.0 °F 87.3 °F 64.4 °F 48% 30.19 in 10.0 mi Calm Calm - N/A   Clear
1:55 PM 87.8 °F 88.5 °F 62.6 °F 43% 30.18 in 10.0 mi SE 4.6 mph - N/A   Scattered Clouds
2:15 PM 86.0 °F 86.6 °F 62.6 °F 45% 30.17 in 10.0 mi SE 5.8 mph - N/A   Scattered Clouds
2:35 PM 86.0 °F 86.6 °F 62.6 °F 45% 30.16 in 10.0 mi ESE 4.6 mph - N/A   Scattered Clouds
2:55 PM 86.0 °F 86.6 °F 62.6 °F 45% 30.16 in 10.0 mi SE 3.5 mph - N/A   Mostly Cloudy
3:15 PM 86.0 °F 87.3 °F 64.4 °F 48% 30.16 in 10.0 mi SE 4.6 mph - N/A   Scattered Clouds
3:35 PM 86.0 °F 88.2 °F 66.2 °F 51% 30.15 in 10.0 mi East 3.5 mph - N/A   Scattered Clouds
3:55 PM 87.8 °F 89.4 °F 64.4 °F 46% 30.15 in 10.0 mi Calm Calm - N/A   Clear
4:15 PM 86.0 °F 87.3 °F 64.4 °F 48% 30.15 in 10.0 mi South 4.6 mph - N/A   Mostly Cloudy
4:35 PM 84.2 °F 85.6 °F 64.4 °F 51% 30.15 in 10.0 mi Calm Calm - N/A   Scattered Clouds
4:55 PM 87.8 °F 89.4 °F 64.4 °F 46% 30.15 in 10.0 mi South 3.5 mph - N/A   Scattered Clouds
5:15 PM 84.2 °F 86.6 °F 66.2 °F 55% 30.16 in 10.0 mi SE 8.1 mph - N/A   Mostly Cloudy
5:35 PM 82.4 °F 85.4 °F 68.0 °F 62% 30.15 in 10.0 mi ESE 3.5 mph - N/A   Scattered Clouds
5:55 PM 82.4 °F 84.6 °F 66.2 °F 58% 30.15 in 10.0 mi SE 4.6 mph - N/A   Clear
6:15 PM 82.4 °F 83.9 °F 64.4 °F 54% 30.15 in 10.0 mi ESE 3.5 mph - N/A   Clear
6:35 PM 80.6 °F 82.7 °F 66.2 °F 61% 30.15 in 10.0 mi ESE 3.5 mph - N/A   Clear
6:55 PM 77.0 °F - 68.0 °F 74% 30.16 in 10.0 mi Calm Calm - N/A   Clear
7:15 PM 77.0 °F - 68.0 °F 74% 30.16 in 10.0 mi Calm Calm - N/A   Clear
7:35 PM 75.2 °F - 69.8 °F 83% 30.17 in 10.0 mi Calm Calm - N/A   Scattered Clouds
7:55 PM 75.2 °F - 69.8 °F 83% 30.18 in 10.0 mi Calm Calm - N/A   Scattered Clouds
8:15 PM 75.2 °F - 68.0 °F 78% 30.19 in 10.0 mi Calm Calm - N/A   Scattered Clouds
8:35 PM 75.2 °F - 68.0 °F 78% 30.20 in 10.0 mi Calm Calm - N/A   Scattered Clouds
8:55 PM 73.4 °F - 68.0 °F 83% 30.21 in 7.0 mi NE 3.5 mph - N/A   Scattered Clouds
9:15 PM 73.4 °F - 68.0 °F 83% 30.21 in 10.0 mi Calm Calm - N/A   Clear
9:35 PM 71.6 °F - 68.0 °F 88% 30.21 in 7.0 mi NNE 3.5 mph - N/A   Clear
9:55 PM 71.6 °F - 68.0 °F 88% 30.21 in 7.0 mi Calm Calm - N/A   Clear
10:15 PM 71.6 °F - 68.0 °F 88% 30.21 in 7.0 mi Calm Calm - N/A   Clear
10:35 PM 69.8 °F - 68.0 °F 94% 30.22 in 7.0 mi Calm Calm - N/A   Clear
10:55 PM 69.8 °F - 66.2 °F 88% 30.22 in 5.0 mi Calm Calm - N/A   Clear
11:15 PM 69.8 °F - 66.2 °F 88% 30.21 in 5.0 mi Calm Calm - N/A   Clear
11:35 PM 69.8 °F - 66.2 °F 88% 30.21 in 5.0 mi Calm Calm - N/A   Clear
11:55 PM 69.8 °F - 66.2 °F 88% 30.21 in 5.0 mi Calm Calm - N/A   Clear